User: anonymous   Login
Location: D.A.R.C. Observatory
(36.7133°N, 120.8553°W)
Time: 16:07:50
(UTC-07:00)
Language:

USA 215 - Orbit

View from above orbital plane
View from above orbital plane
View from above satellite
View from above satellite

Ground track
Ground track

The orbit data is extracted from the following two-line orbital elements,

1 37162U 10046A   15164.03127140 0.00000000  00000-0  00000-0 0    08
2 37162 123.0041  53.9387 0004000 119.7745 240.2255 13.41431719    09
Epoch (UTC): 13 June 2015 00:45:01
Eccentricity: 0.0004000
inclination: 123.0041°
perigee height: 1101 km
apogee height: 1107 km
right ascension of ascending node: 53.9387°
argument of perigee: 119.7745°
revolutions per day: 13.41431719
mean anomaly at epoch: 240.2255°
orbit number at epoch: 0

The dashed part of the orbit path shows where the satellite is in the earth's shadow,  

DLR